FW9783 Weather Reports


Display with metric or nautical units.
time (UTC)temp
F
wind
direction
speed
MPH
gust
MPH
rain 1hr
in
rain 24hr
in
rain mn
in
humidity
%
barometer
mb
20260906210954 93 216 1.0 10.0 0.00 0.00 0.00 32 1023.0
20260906210449 93 218 0.0 0.0 0.00 0.00 0.00 33 1022.8
20260906205947 94 128 0.0 3.0 0.00 0.00 0.00 33 1022.7
20260906205444 94 182 0.0 9.0 0.00 0.00 0.00 32 1023.1
20260906204940 93 176 5.0 10.0 0.00 0.00 0.00 32 1023.0
20260906204439 92 180 0.0 11.0 0.00 0.00 0.00 34 1023.0
20260906203938 93 203 0.0 11.0 0.00 0.00 0.00 34 1023.2
20260906203434 93 199 3.0 18.0 0.00 0.00 0.00 33 1023.3
20260906202931 95 202 0.0 7.0 0.00 0.00 0.00 33 1023.5
20260906202430 94 85 0.0 6.0 0.00 0.00 0.00 33 1023.1
20260906201925 94 207 0.0 15.0 0.00 0.00 0.00 33 1023.3
20260906201420 94 205 0.0 23.0 0.00 0.00 0.00 34 1023.4
20260906200915 94 226 3.0 10.0 0.00 0.00 0.00 34 1023.1
20260906200412 95 128 2.0 11.0 0.00 0.00 0.00 34 1023.3
20260906195911 94 198 1.0 11.0 0.00 0.00 0.00 33 1023.4
20260906195408 94 187 0.0 5.0 0.00 0.00 0.00 34 1023.3
20260906194903 93 104 0.0 8.0 0.00 0.00 0.00 34 1023.5
20260906194359 93 124 0.0 0.0 0.00 0.00 0.00 34 1023.3
20260906193854 94 128 3.0 18.0 0.00 0.00 0.00 34 1023.8
20260906193349 94 199 1.0 6.0 0.00 0.00 0.00 34 1023.7
20260906192845 93 160 0.0 5.0 0.00 0.00 0.00 35 1024.0
20260906192344 94 218 0.0 8.0 0.00 0.00 0.00 35 1023.8
20260906191844 94 206 0.0 10.0 0.00 0.00 0.00 34 1023.7
20260906191339 93 201 2.0 5.0 0.00 0.00 0.00 35 1024.2
20260906190833 93 200 0.0 0.0 0.00 0.00 0.00 35 1024.2
20260906190332 92 186 0.0 9.0 0.00 0.00 0.00 36 1024.2
20260906185833 93 150 0.0 13.0 0.00 0.00 0.00 35 1024.4
20260906185332 92 223 3.0 16.0 0.00 0.00 0.00 36 1024.4
20260906184826 93 206 3.0 9.0 0.00 0.00 0.00 36 1024.3
20260906184321 91 241 1.0 6.0 0.00 0.00 0.00 38 1024.3
20260906183817 92 163 3.0 8.0 0.00 0.00 0.00 37 1024.3
20260906183313 91 183 0.0 0.0 0.00 0.00 0.00 37 1024.7
20260906182813 91 173 0.0 3.0 0.00 0.00 0.00 37 1024.9
20260906182309 91 184 3.0 8.0 0.00 0.00 0.00 37 1024.9
20260906181809 93 162 2.0 10.0 0.00 0.00 0.00 37 1024.9
20260906181305 93 199 0.0 7.0 0.00 0.00 0.00 37 1024.6
20260906180806 92 112 1.0 9.0 0.00 0.00 0.00 38 1025.0
20260906180301 93 156 1.0 7.0 0.00 0.00 0.00 37 1025.0
20260906175758 91 192 0.0 8.0 0.00 0.00 0.00 38 1025.1
20260906175254 92 215 5.0 9.0 0.00 0.00 0.00 37 1025.1
20260906174752 92 150 3.0 10.0 0.00 0.00 0.00 38 1025.4
20260906174252 92 224 3.0 11.0 0.00 0.00 0.00 39 1025.2
20260906173747 91 212 0.0 0.0 0.00 0.00 0.00 40 1025.4
20260906173243 92 126 4.0 18.0 0.00 0.00 0.00 40 1025.3
20260906172742 92 223 1.0 9.0 0.00 0.00 0.00 40 1025.3
20260906172238 91 220 0.0 13.0 0.00 0.00 0.00 41 1025.2
20260906171738 91 113 0.0 3.0 0.00 0.00 0.00 41 1025.5
20260906171233 91 187 1.0 7.0 0.00 0.00 0.00 41 1025.5
20260906170729 91 209 0.0 8.0 0.00 0.00 0.00 41 1025.5
20260906170224 91 117 0.0 3.0 0.00 0.00 0.00 40 1025.4
20260906165721 91 258 0.0 9.0 0.00 0.00 0.00 42 1025.4
20260906165221 90 243 0.0 7.0 0.00 0.00 0.00 41 1025.5
20260906164720 90 202 0.0 3.0 0.00 0.00 0.00 42 1025.6
20260906164216 90 194 2.0 9.0 0.00 0.00 0.00 41 1025.7
20260906163711 90 244 0.0 9.0 0.00 0.00 0.00 41 1025.5
20260906163208 90 142 2.0 14.0 0.00 0.00 0.00 41 1025.6
20260906162704 90 177 7.0 13.0 0.00 0.00 0.00 41 1025.9
20260906162204 89 239 0.0 10.0 0.00 0.00 0.00 43 1025.9
20260906161658 90 173 0.0 6.0 0.00 0.00 0.00 43 1025.7
20260906161158 89 164 0.0 10.0 0.00 0.00 0.00 43 1025.6
20260906160657 89 195 1.0 8.0 0.00 0.00 0.00 44 1025.6
20260906160156 89 153 0.0 7.0 0.00 0.00 0.00 44 1025.5
20260906155654 89 134 0.0 11.0 0.00 0.00 0.00 44 1025.5
20260906155149 88 240 0.0 2.0 0.00 0.00 0.00 46 1025.3
20260906154645 88 179 0.0 1.0 0.00 0.00 0.00 46 1025.3
20260906154144 88 174 0.0 5.0 0.00 0.00 0.00 46 1025.4
20260906153643 87 215 0.0 7.0 0.00 0.00 0.00 46 1025.1
20260906153138 87 199 3.0 8.0 0.00 0.00 0.00 47 1025.4
20260906152633 87 197 1.0 8.0 0.00 0.00 0.00 47 1025.4
20260906152132 87 247 0.0 3.0 0.00 0.00 0.00 47 1025.3
20260906151627 87 216 0.0 10.0 0.00 0.00 0.00 48 1025.3
20260906151124 86 186 0.0 8.0 0.00 0.00 0.00 48 1025.2
20260906150618 85 211 0.0 6.0 0.00 0.00 0.00 49 1025.2
20260906150114 84 115 0.0 0.0 0.00 0.00 0.00 51 1025.4
20260906145613 83 207 1.0 3.0 0.00 0.00 0.00 51 1025.4
20260906145108 83 187 0.0 1.0 0.00 0.00 0.00 52 1025.3
20260906144602 83 233 0.0 0.0 0.00 0.00 0.00 52 1025.4
20260906144058 82 198 0.0 3.0 0.00 0.00 0.00 52 1025.1
20260906143557 81 266 2.0 6.0 0.00 0.00 0.00 53 1025.2
20260906143054 80 176 0.0 0.0 0.00 0.00 0.00 54 1025.4
20260906142553 80 217 0.0 1.0 0.00 0.00 0.00 54 1025.6
20260906142049 80 168 0.0 9.0 0.00 0.00 0.00 54 1025.2
20260906141547 80 238 0.0 1.0 0.00 0.00 0.00 54 1025.1
20260906141043 79 233 0.0 0.0 0.00 0.00 0.00 54 1025.2
20260906140542 79 244 0.0 0.0 0.00 0.00 0.00 55 1025.4
20260906140037 78 234 0.0 0.0 0.00 0.00 0.00 55 1025.2
20260906135534 78 133 0.0 0.0 0.00 0.00 0.00 55 1025.4
20260906135030 78 247 0.0 0.0 0.00 0.00 0.00 55 1025.1
20260906134525 77 176 0.0 0.0 0.00 0.00 0.00 56 1025.0
20260906134020 77 221 0.0 0.0 0.00 0.00 0.00 57 1025.2
20260906133516 76 191 0.0 0.0 0.00 0.00 0.00 57 1024.9
20260906133011 76 219 0.0 0.0 0.00 0.00 0.00 57 1024.7
20260906132506 76 173 0.0 2.0 0.00 0.00 0.00 57 1024.6
20260906132001 76 119 0.0 1.0 0.00 0.00 0.00 57 1024.4
20260906131456 75 178 1.0 8.0 0.00 0.00 0.00 57 1024.5
20260906130952 75 229 0.0 0.0 0.00 0.00 0.00 57 1024.3
20260906130452 75 143 0.0 8.0 0.00 0.00 0.00 58 1024.4
20260906125952 75 208 0.0 0.0 0.00 0.00 0.00 58 1024.4
20260906125449 75 179 0.0 0.0 0.00 0.00 0.00 58 1024.4
20260906124949 75 170 0.0 0.0 0.00 0.00 0.00 58 1024.6
20260906124445 75 211 0.0 0.0 0.00 0.00 0.00 58 1024.7
20260906123945 75 147 0.0 0.0 0.00 0.00 0.00 58 1024.7
20260906123444 75 217 0.0 0.0 0.00 0.00 0.00 58 1024.4
20260906122944 75 206 0.0 0.0 0.00 0.00 0.00 57 1024.5
20260906122439 75 171 0.0 0.0 0.00 0.00 0.00 57 1024.2
20260906121936 75 216 0.0 0.0 0.00 0.00 0.00 57 1024.1
20260906121432 75 196 0.0 0.0 0.00 0.00 0.00 57 1024.4
20260906120928 75 187 0.0 0.0 0.00 0.00 0.00 57 1024.1
20260906120423 75 191 0.0 0.0 0.00 0.00 0.00 57 1024.1
20260906115919 75 162 0.0 0.0 0.00 0.00 0.00 57 1023.7
20260906115415 75 190 0.0 0.0 0.00 0.00 0.00 57 1024.1
20260906114914 75 218 0.0 0.0 0.00 0.00 0.00 57 1024.2
20260906114409 75 182 0.0 0.0 0.00 0.00 0.00 57 1024.3
20260906113905 75 182 0.0 0.0 0.00 0.00 0.00 56 1024.2
20260906113403 75 173 0.0 0.0 0.00 0.00 0.00 56 1024.2
20260906112859 75 200 0.0 1.0 0.00 0.00 0.00 56 1024.1
20260906112355 76 201 0.0 0.0 0.00 0.00 0.00 56 1024.0
20260906111855 76 201 0.0 0.0 0.00 0.00 0.00 56 1024.1
20260906111355 76 155 0.0 0.0 0.00 0.00 0.00 56 1024.2
20260906110850 76 206 0.0 0.0 0.00 0.00 0.00 56 1024.1
20260906110346 76 185 0.0 0.0 0.00 0.00 0.00 55 1024.2
20260906105844 76 236 0.0 0.0 0.00 0.00 0.00 55 1024.3
20260906105340 76 186 0.0 0.0 0.00 0.00 0.00 55 1024.1
20260906104836 76 214 0.0 0.0 0.00 0.00 0.00 55 1023.8
20260906104334 76 225 0.0 0.0 0.00 0.00 0.00 55 1023.8
20260906103833 77 215 0.0 1.0 0.00 0.00 0.00 54 1024.0
20260906103331 77 191 0.0 1.0 0.00 0.00 0.00 54 1023.8
20260906102828 77 207 0.0 0.0 0.00 0.00 0.00 54 1023.7
20260906102326 77 210 0.0 0.0 0.00 0.00 0.00 54 1024.0
20260906101822 77 169 0.0 0.0 0.00 0.00 0.00 54 1024.0
20260906101317 77 199 0.0 0.0 0.00 0.00 0.00 54 1023.8
20260906100813 77 209 0.0 0.0 0.00 0.00 0.00 54 1023.7
20260906100311 77 166 0.0 1.0 0.00 0.00 0.00 54 1023.6
20260906095807 77 203 0.0 0.0 0.00 0.00 0.00 54 1023.5
20260906095305 77 231 0.0 0.0 0.00 0.00 0.00 53 1023.7
20260906094801 77 206 0.0 1.0 0.00 0.00 0.00 53 1023.6
20260906094256 77 210 0.0 9.0 0.00 0.00 0.00 53 1023.7
20260906093753 77 160 0.0 0.0 0.00 0.00 0.00 53 1023.7
20260906093248 78 196 0.0 0.0 0.00 0.00 0.00 53 1024.1
20260906092744 78 192 0.0 6.0 0.00 0.00 0.00 53 1023.8
20260906092244 77 211 0.0 0.0 0.00 0.00 0.00 53 1023.8
20260906091739 77 170 0.0 0.0 0.00 0.00 0.00 53 1023.8
20260906091236 77 206 0.0 0.0 0.00 0.00 0.00 53 1023.8
20260906090732 77 217 0.0 0.0 0.00 0.00 0.00 53 1023.8
20260906090231 77 218 0.0 1.0 0.00 0.00 0.00 53 1023.8
20260906085730 77 197 0.0 0.0 0.00 0.00 0.00 53 1023.7
20260906085229 78 204 0.0 0.0 0.00 0.00 0.00 53 1023.6
20260906084725 78 181 0.0 0.0 0.00 0.00 0.00 52 1023.7
20260906084224 78 239 0.0 1.0 0.00 0.00 0.00 52 1023.7
20260906083720 78 318 0.0 0.0 0.00 0.00 0.00 52 1024.0
20260906083215 78 203 0.0 0.0 0.00 0.00 0.00 52 1023.7
20260906082710 78 200 0.0 0.0 0.00 0.00 0.00 52 1024.0
20260906082205 79 178 0.0 0.0 0.00 0.00 0.00 52 1023.8
20260906081701 79 192 0.0 0.0 0.00 0.00 0.00 52 1024.0
20260906081156 79 206 0.0 0.0 0.00 0.00 0.00 52 1023.8
20260906080652 79 174 0.0 0.0 0.00 0.00 0.00 51 1024.1
20260906080148 79 181 0.0 0.0 0.00 0.00 0.00 51 1024.1
20260906075648 79 247 0.0 0.0 0.00 0.00 0.00 51 1023.5
20260906075142 79 178 0.0 0.0 0.00 0.00 0.00 51 1023.7
20260906074638 79 175 0.0 1.0 0.00 0.00 0.00 50 1023.7
20260906074137 80 226 0.0 0.0 0.00 0.00 0.00 50 1023.7
20260906073632 80 184 0.0 8.0 0.00 0.00 0.00 50 1023.7
20260906073127 80 207 0.0 0.0 0.00 0.00 0.00 50 1023.8
20260906072622 80 199 0.0 1.0 0.00 0.00 0.00 50 1023.7
20260906072119 80 176 0.0 0.0 0.00 0.00 0.00 50 1024.0
20260906071615 80 171 0.0 0.0 0.00 0.00 0.00 50 1023.8
20260906071115 80 209 0.0 0.0 0.00 0.00 0.00 50 1023.8
20260906070612 80 198 0.0 0.0 0.00 0.00 0.00 49 1024.3
20260906070107 80 197 0.0 0.0 0.00 0.00 0.00 49 1023.7
20260906065606 80 209 0.0 0.0 0.00 0.00 0.00 49 1024.0
20260906065102 80 203 0.0 2.0 0.00 0.00 0.00 49 1024.0
20260906064557 81 171 0.0 0.0 0.00 0.00 0.00 48 1024.0
20260906064052 81 157 0.0 3.0 0.00 0.00 0.00 48 1024.0
20260906063547 81 202 0.0 1.0 0.00 0.00 0.00 48 1024.0
20260906063044 81 236 0.0 1.0 0.00 0.00 0.00 48 1024.1
20260906062539 81 204 0.0 2.0 0.00 0.00 0.00 48 1024.2
20260906062038 81 229 0.0 0.0 0.00 0.00 0.00 48 1024.0
20260906061535 81 213 0.0 11.0 0.00 0.00 0.00 48 1024.0
20260906061033 81 226 1.0 2.0 0.00 0.00 0.00 48 1024.0
20260906060530 82 221 0.0 8.0 0.00 0.00 0.00 48 1023.6
20260906060027 82 219 0.0 2.0 0.00 0.00 0.00 47 1024.0
20260906055523 82 203 0.0 1.0 0.00 0.00 0.00 47 1023.8
20260906055018 82 202 6.0 16.0 0.00 0.00 0.00 47 1024.0
20260906054518 82 129 0.0 5.0 0.00 0.00 0.00 47 1023.8
20260906054013 82 128 0.0 1.0 0.00 0.00 0.00 46 1024.1
20260906053510 83 206 0.0 0.0 0.00 0.00 0.00 46 1024.0
20260906053005 83 210 0.0 7.0 0.00 0.00 0.00 46 1024.0
20260906052501 83 184 0.0 7.0 0.00 0.00 0.00 45 1023.7
20260906051958 83 87 3.0 6.0 0.00 0.00 0.00 45 1023.7
20260906051453 84 211 0.0 7.0 0.00 0.00 0.00 45 1023.6
20260906050948 84 143 0.0 6.0 0.00 0.00 0.00 45 1023.7
20260906050448 84 205 0.0 1.0 0.00 0.00 0.00 44 1023.8
20260906045947 84 158 0.0 7.0 0.00 0.00 0.00 44 1024.1
20260906045446 84 192 0.0 9.0 0.00 0.00 0.00 44 1023.7
20260906044942 84 199 0.0 2.0 0.00 0.00 0.00 44 1024.0
20260906044437 84 185 0.0 3.0 0.00 0.00 0.00 43 1024.1
20260906043933 85 354 0.0 2.0 0.00 0.00 0.00 43 1024.0
20260906043429 85 199 0.0 9.0 0.00 0.00 0.00 43 1023.8
20260906042924 85 230 0.0 2.0 0.00 0.00 0.00 43 1024.1
20260906042423 85 214 3.0 10.0 0.00 0.00 0.00 43 1023.7
20260906041918 85 152 0.0 2.0 0.00 0.00 0.00 43 1024.0
20260906041415 85 207 0.0 0.0 0.00 0.00 0.00 43 1024.0
20260906040914 85 218 0.0 0.0 0.00 0.00 0.00 42 1023.7
20260906040410 86 233 4.0 8.0 0.00 0.00 0.00 42 1024.0
20260906035905 86 84 0.0 1.0 0.00 0.00 0.00 41 1024.0
20260906035400 86 219 0.0 7.0 0.00 0.00 0.00 41 1024.0
20260906034856 86 239 0.0 1.0 0.00 0.00 0.00 41 1023.8
20260906034355 86 174 0.0 0.0 0.00 0.00 0.00 40 1023.8
20260906033852 87 172 0.0 2.0 0.00 0.00 0.00 40 1023.8
20260906033351 87 202 1.0 13.0 0.00 0.00 0.00 40 1023.7
20260906032847 87 204 2.0 7.0 0.00 0.00 0.00 40 1023.7
20260906032343 87 32 0.0 11.0 0.00 0.00 0.00 40 1023.5
20260906031838 87 168 0.0 11.0 0.00 0.00 0.00 40 1023.6
20260906031333 87 182 0.0 8.0 0.00 0.00 0.00 39 1023.6
20260906030833 87 193 2.0 7.0 0.00 0.00 0.00 39 1023.5
20260906030328 87 170 0.0 8.0 0.00 0.00 0.00 39 1023.5
20260906025823 87 173 0.0 9.0 0.00 0.00 0.00 39 1023.0
20260906025317 87 173 0.0 0.0 0.00 0.00 0.00 40 1023.0
20260906024816 87 186 0.0 0.0 0.00 0.00 0.00 40 1022.8
20260906024315 87 116 0.0 2.0 0.00 0.00 0.00 40 1022.6
20260906023811 87 166 0.0 0.0 0.00 0.00 0.00 40 1022.7
20260906023306 88 187 0.0 1.0 0.00 0.00 0.00 40 1022.4
20260906022802 88 159 0.0 1.0 0.00 0.00 0.00 40 1022.6
20260906022257 88 171 0.0 0.0 0.00 0.00 0.00 40 1022.3
20260906021753 88 196 0.0 9.0 0.00 0.00 0.00 40 1022.5
20260906021252 88 199 0.0 8.0 0.00 0.00 0.00 39 1022.3
20260906020746 88 171 0.0 7.0 0.00 0.00 0.00 39 1022.5
20260906020246 88 224 1.0 5.0 0.00 0.00 0.00 41 1022.3
20260906015741 88 200 0.0 0.0 0.00 0.00 0.00 41 1022.4
20260906015239 88 203 0.0 1.0 0.00 0.00 0.00 41 1022.5
20260906014740 88 209 0.0 0.0 0.00 0.00 0.00 40 1022.2
20260906014235 89 211 0.0 6.0 0.00 0.00 0.00 40 1022.1
20260906013731 90 215 0.0 6.0 0.00 0.00 0.00 38 1021.8
20260906013231 89 210 0.0 0.0 0.00 0.00 0.00 38 1021.8
20260906012726 90 199 0.0 0.0 0.00 0.00 0.00 38 1021.6
20260906012221 90 166 0.0 5.0 0.00 0.00 0.00 37 1021.8
20260906011717 90 185 0.0 0.0 0.00 0.00 0.00 37 1021.8
20260906011211 90 196 0.0 0.0 0.00 0.00 0.00 37 1021.8
20260906010707 91 229 0.0 0.0 0.00 0.00 0.00 36 1021.6
20260906010203 91 176 0.0 1.0 0.00 0.00 0.00 36 1021.8
20260906005702 91 217 0.0 0.0 0.00 0.00 0.00 36 1021.7
20260906005202 91 197 0.0 0.0 0.00 0.00 0.00 36 1021.6
20260906004701 91 204 0.0 1.0 0.00 0.00 0.00 36 1021.6
20260906004156 91 101 0.0 3.0 0.00 0.00 0.00 36 1021.9
20260906003652 91 128 0.0 0.0 0.00 0.00 0.00 36 1021.4
20260906003147 91 128 0.0 3.0 0.00 0.00 0.00 36 1021.6
20260906002647 92 208 0.0 0.0 0.00 0.00 0.00 36 1021.4
20260906002142 92 221 1.0 8.0 0.00 0.00 0.00 36 1021.8
20260906001638 92 293 0.0 3.0 0.00 0.00 0.00 36 1021.5
20260906001137 93 131 0.0 5.0 0.00 0.00 0.00 35 1021.6
20260906000633 93 198 0.0 0.0 0.00 0.00 0.00 33 1021.4
20260906000129 93 139 0.0 0.0 0.00 0.00 0.00 33 1021.2
20260905235627 93 166 0.0 0.0 0.00 0.00 0.00 33 1021.1
20260905235122 94 144 0.0 0.0 0.00 0.00 0.00 33 1021.1
20260905234618 94 203 0.0 3.0 0.00 0.00 0.00 33 1020.9
20260905234114 94 207 0.0 8.0 0.00 0.00 0.00 32 1020.9
20260905233614 94 211 0.0 0.0 0.00 0.00 0.00 32 1020.9
20260905233108 94 204 0.0 5.0 0.00 0.00 0.00 32 1020.6
20260905232603 95 186 2.0 11.0 0.00 0.00 0.00 32 1020.6
20260905232059 95 191 0.0 8.0 0.00 0.00 0.00 31 1020.8
20260905231554 95 149 0.0 1.0 0.00 0.00 0.00 31 1020.5
20260905231050 95 191 0.0 0.0 0.00 0.00 0.00 30 1020.7
20260905230550 95 199 0.0 0.0 0.00 0.00 0.00 30 1020.7
20260905230048 95 140 0.0 1.0 0.00 0.00 0.00 31 1020.7
20260905225543 95 183 0.0 6.0 0.00 0.00 0.00 30 1020.8
20260905225038 95 180 0.0 2.0 0.00 0.00 0.00 31 1020.5
20260905224537 96 221 0.0 5.0 0.00 0.00 0.00 31 1020.7
20260905224037 96 224 0.0 0.0 0.00 0.00 0.00 31 1020.5
20260905223535 97 198 1.0 14.0 0.00 0.00 0.00 31 1020.5
20260905223031 96 196 0.0 11.0 0.00 0.00 0.00 31 1020.7
20260905222531 96 183 4.0 15.0 0.00 0.00 0.00 31 1020.6
20260905222026 97 233 0.0 0.0 0.00 0.00 0.00 30 1020.5
20260905221522 98 187 0.0 18.0 0.00 0.00 0.00 30 1020.7
20260905221018 98 216 5.0 8.0 0.00 0.00 0.00 29 1020.7
20260905220514 98 242 0.0 9.0 0.00 0.00 0.00 29 1020.7
20260905220010 99 164 1.0 14.0 0.00 0.00 0.00 29 1020.8
20260905215504 99 155 0.0 6.0 0.00 0.00 0.00 28 1020.6
20260905215000 98 200 0.0 7.0 0.00 0.00 0.00 28 1020.8
20260905214455 98 122 2.0 18.0 0.00 0.00 0.00 29 1020.9
20260905213955 99 193 0.0 15.0 0.00 0.00 0.00 29 1021.2
20260905213452 99 201 0.0 0.0 0.00 0.00 0.00 28 1020.9
20260905212947 99 196 1.0 3.0 0.00 0.00 0.00 28 1021.1
20260905212441 99 221 0.0 2.0 0.00 0.00 0.00 27 1021.1
20260905211941 98 77 0.0 5.0 0.00 0.00 0.00 28 1021.2
20260905211437 98 204 0.0 0.0 0.00 0.00 0.00 28 1021.1